Cut Bank, MT

10:01 PM MST on February 23, 2017 (GMT -0700)
Cut Bank Municipal

Weather History for KCTB - October, 2012

Change the Weather History Date:

Tuesday, October 16, 2012

  Actual Average Record
Temperature  
Mean Temperature 48 °F 43 °F  
Max Temperature 59 °F 56 °F 81 °F (1927)
Min Temperature 37 °F 30 °F 9 °F (1930)
Degree Days  
Heating Degree Days 17 22  
Month to date heating degree days 333 309  
Since 1 July heating degree days 656 846  
Cooling Degree Days 0 0  
Month to date cooling degree days 0 0  
Year to date cooling degree days 210 161  
Moisture  
Dew Point 35 °F    
Average Humidity 57    
Maximum Humidity 71    
Minimum Humidity 43    
Precipitation  
Precipitation 0.03 in 0.01 in 0.32 in (1918)
Month to date precipitation 0.55 0.28  
Year to date precipitation 7.66 10.16  
Snow  
Snow 0.00 in - - ()
Snow Depth 0.00 in    
Sea Level Pressure  
Sea Level Pressure 29.45 in    
Wind  
Wind Speed 24 mph (WSW)    
Max Wind Speed 48 mph    
Max Gust Speed 58 mph    
Visibility 10 miles    
Events Rain    
T = Trace of Precipitation, MM = Missing Value Source: NWS Daily Summary

Daily Weather History Graph

Daily Weather History Graph

Search for Another Location

Airport or City:

Trip Planner

Search our weather history database for the weather conditions in past years. The results will help you decide how hot, cold, wet, or windy it might be!

Date:

Astronomy

Oct. 16, 2012 Rise Set
Actual Time 7:51 AM MDT 6:37 PM MDT
Civil Twilight 7:20 AM MDT 7:08 PM MDT
Nautical Twilight 6:43 AM MDT 7:45 PM MDT
Astronomical Twilight 6:07 AM MDT 8:21 PM MDT
Moon 9:30 AM MDT (10/16) 7:12 PM MDT (10/16)
Length of Visible Light 11h 48m
Length of Day
10h 45m
New Moon, 2% of the Moon is Illuminated
Oct 16
New Moon
Oct 21
First Quarter
Oct 29
Full
Nov 6
Last Quarter
Nov 13
New

Hourly Weather History & Observations

Time (MDT) Temp. Windchill Dew Point Humidity Pressure Visibility Wind Dir Wind Speed Gust Speed Precip Events Conditions
12:35 AM 55.4 °F - 35.6 °F 47% 29.59 in 10.0 mi SW 23.0 mph 28.8 mph N/A   Clear
12:56 AM 54.0 °F - 35.1 °F 49% 29.54 in 10.0 mi SSW 18.4 mph 23.0 mph N/A   Scattered Clouds
1:56 AM 50.0 °F - 39.0 °F 66% 29.50 in 10.0 mi SW 5.8 mph - N/A   Clear
2:56 AM 45.0 °F 41.8 °F 34.0 °F 65% 29.46 in 10.0 mi South 5.8 mph - N/A   Clear
3:56 AM 46.4 °F 42.9 °F 33.8 °F 62% 29.46 in 10.0 mi SE 6.9 mph - N/A   Clear
4:56 AM 51.8 °F - 42.8 °F 71% 29.41 in 10.0 mi WSW 12.7 mph - N/A   Clear
5:56 AM 55.4 °F - 41.0 °F 58% 29.39 in 10.0 mi WSW 32.2 mph 41.4 mph N/A   Partly Cloudy
6:56 AM 50.0 °F - 45.0 °F 83% 29.36 in 9.0 mi West 29.9 mph 39.1 mph 0.00 in Rain Light Rain
7:56 AM 51.1 °F - 41.0 °F 68% 29.29 in 10.0 mi SW 25.3 mph 43.7 mph 0.02 in Rain Light Rain
8:56 AM 50.0 °F - 41.0 °F 71% 29.27 in 10.0 mi SSW 9.2 mph - 0.00 in   Clear
9:56 AM 53.6 °F - 41.0 °F 62% 29.30 in 10.0 mi WSW 16.1 mph 25.3 mph N/A   Mostly Cloudy
10:04 AM 55.4 °F - 42.8 °F 63% 29.29 in 10.0 mi WNW 18.4 mph 26.5 mph N/A   Scattered Clouds
10:14 AM 53.6 °F - 42.8 °F 67% 29.29 in 10.0 mi WNW 18.4 mph 31.1 mph N/A   Scattered Clouds
10:56 AM 55.0 °F - 41.0 °F 59% 29.24 in 10.0 mi West 23.0 mph 29.9 mph N/A   Partly Cloudy
11:56 AM 50.0 °F - 39.0 °F 66% 29.31 in 10.0 mi West 43.7 mph 57.5 mph 0.01 in Rain Light Rain
12:56 PM 53.1 °F - 34.0 °F 48% 29.30 in 10.0 mi WNW 44.9 mph 54.1 mph 0.00 in   Scattered Clouds
1:56 PM 51.1 °F - 34.0 °F 52% 29.32 in 10.0 mi WSW 38.0 mph 49.5 mph N/A   Clear
2:56 PM 52.0 °F - 32.0 °F 47% 29.35 in 10.0 mi WSW 41.4 mph 55.2 mph N/A   Clear
3:56 PM 48.9 °F - 32.0 °F 52% 29.41 in 10.0 mi WSW 46.0 mph 54.1 mph N/A   Clear
4:56 PM 46.4 °F 37.2 °F 30.2 °F 53% 29.47 in 10.0 mi West 29.9 mph 48.3 mph N/A   Mostly Cloudy
5:56 PM 46.0 °F 37.0 °F 30.0 °F 54% 29.49 in 10.0 mi West 27.6 mph 34.5 mph N/A   Overcast
6:56 PM 44.1 °F 35.7 °F 28.9 °F 55% 29.58 in 10.0 mi West 20.7 mph 28.8 mph N/A   Partly Cloudy
7:56 PM 42.1 °F 33.9 °F 28.0 °F 58% 29.63 in 10.0 mi West 17.3 mph - N/A   Mostly Cloudy
8:56 PM 43.0 °F 32.7 °F 21.9 °F 43% 29.65 in 10.0 mi West 28.8 mph 39.1 mph N/A   Clear
9:56 PM 42.1 °F 32.1 °F 21.9 °F 45% 29.68 in 10.0 mi West 25.3 mph 32.2 mph N/A   Clear
10:56 PM 39.9 °F 30.5 °F 24.1 °F 53% 29.72 in 10.0 mi West 19.6 mph 31.1 mph N/A   Clear
11:56 PM 39.0 °F 29.6 °F 25.0 °F 57% 29.75 in 10.0 mi West 18.4 mph - N/A   Clear